Showing default

QIANFAN-13, 60391

Orbit data source: Space-Track

QIANFAN-13, 60391 is a Chinese payload satellite in LEO that was launched on Tue, 06 Aug 2024 UTC via a CHANG ZHENG 6A launch vehicle from the Taiyaun Space Center, China (TSC). Payload-class satellites include a variety of spacecraft equipped with specific instruments for various scientific and technological missions. These include communications satellites like Starlink; space stations such as the ISS; scientific satellites like the Hubble; Earth observation satellites from companies like Planet Labs, Umbra, and HawkEye 360; GPS; miniature CubeSats for education and research; and military/defense satellites.

Loading next visibility...
Identifier
60391, 2024-140N
Orbit
LEO
Country
Flag of CNCN / PRC
Related business
Manufacturer
SECM
Mission
Operational Commercial Communications
Bus & Motor
QIANFAN, Unknown motor
Mass
267 kg wet, ~267 kg dry
Launch date (UTC)
2024-08-06 (2 years ago)
Launch vehicle
CHANG ZHENG 6A
Launch site
Taiyaun Space Center, China (TSC)
Object type
Payload
Rocket body
Debris
Shape & HBR
Box + 1 Pan, 5.0 m
Radar Cross Section
13.200 m², Large (>1 m²)

Expand to show TLE details & history
Last TLE update: 7 hours ago

TLE from 7 hours ago
0 QIANFAN-13
1 60391U 24140N   26118.80894257  .00000054  00000-0  64425-4 0  9995
2 60391  88.9681 285.1908 0013584 164.7286 195.4278 13.51005689 85770
Epoch: 2026-04-28T19:24Z
TLE epoch observation values (Epoch: 2026-04-28T19:24:52.638Z)
Latitude
0.00002°
Longitude
137.19254°
Altitude
1,081.268 km
Speed
7.307 km/s
True Right ascension
19h 00m 45s
True Declination
0° 00' 00"
Sunlit
Object was in daylight at epoch
Visualization orbit readout
Latitude
Unknown
Longitude
Unknown
Altitude
Unknown
Speed
Unknown
Apparent Right ascension
Unknown
Apparent Declination
Unknown
Sunlit
N/A
Visualization observer readout
Local Sidereal Time
10:08:25
Azimuth
Unknown
Elevation
Unknown
Doppler factor
Unknown
Orbital elements
Apogee altitude
1,075.723 km
Perigee altitude
1,055.5 km
Semi-major axis
7,443.749 km
Eccentricity
0.00136
Inclination
88.9681°
RAAN
285.1908°
Arg. of periapsis
164.7286°
True anomaly
195.38646°
Mean anomaly
195.4278°
Eccentric anomaly
195.40712°
Mean motion
3.37952 °/min
Orbital period
106.52 mins
BSTAR
0.000064425
Loading maneuver chart data...
Computing Atmospheric mass density...

Documentation

Showing up to 5 results
|